Weather History for Graham, TX

Change the Weather History Date:

Tuesday, May 6, 2014

  Actual Average (KMWL) Record (KMWL)
Temperature  
Mean Temperature 82 °F -  
Max Temperature 96 °F 80 °F 100 °F (1998)
Min Temperature 68 °F 58 °F 46 °F (2013)
Cooling Degree Days 17    
Growing Degree Days 32 (Base 50)    
Moisture  
Dew Point 58 °F    
Average Humidity 42    
Maximum Humidity 67    
Minimum Humidity 25    
Precipitation  
Precipitation 0.00 in - - ()
Sea Level Pressure  
Sea Level Pressure 29.67 in    
Wind  
Wind Speed 12 mph (SSE)    
Max Wind Speed 18 mph    
Max Gust Speed 29 mph    
Visibility 10 miles    
Events Rain    
Averages and records for this station are not official NWS values.
T = Trace of Precipitation, MM = Missing Value Source: NWS Daily Summary

Daily Weather History Graph

Daily Weather History Graph

Search for Another Location

Airport:

Trip Planner

Search our weather history database for the weather conditions in past years. The results will help you decide how hot, cold, wet, or windy it might be!

Date:

Astronomy

May. 06, 2014 Rise Set
Actual Time 6:41 AM CDT 8:20 PM CDT
Civil Twilight 6:15 AM CDT 8:47 PM CDT
Nautical Twilight 5:43 AM CDT 9:19 PM CDT
Astronomical Twilight 5:09 AM CDT 9:53 PM CDT
Moon 12:55 PM CDT (5/6) 1:43 AM CDT (5/6)
Length of Visible Light 14h 31m
Length of Day
13h 38m
Waxing Crescent, 46% of the Moon is Illuminated
May 6
Waxing Crescent
May 6
First Quarter
May 14
Full
May 21
Last Quarter
May 28
New

Hourly Weather History & Observations

Time (CDT) Temp. Heat Index Dew Point Humidity Pressure Visibility Wind Dir Wind Speed Gust Speed Precip Events Conditions
12:15 AM 80.6 °F 80.3 °F 53.6 °F 39% 29.72 in 10.0 mi SSE 12.7 mph 17.3 mph N/A   Clear
12:35 AM 80.2 °F 80.1 °F 53.6 °F 40% 29.72 in 10.0 mi SSE 9.2 mph 19.6 mph N/A   Clear
12:55 AM 79.9 °F - 53.6 °F 40% 29.72 in 10.0 mi SSE 9.2 mph - N/A   Clear
1:15 AM 79.3 °F - 53.6 °F 41% 29.73 in 10.0 mi South 10.4 mph 16.1 mph N/A   Clear
1:35 AM 79.0 °F - 53.6 °F 41% 29.72 in 10.0 mi SSE 9.2 mph - N/A   Clear
1:55 AM 78.1 °F - 53.8 °F 43% 29.71 in 10.0 mi SSE 9.2 mph - N/A   Clear
2:15 AM 77.4 °F - 54.0 °F 44% 29.71 in 10.0 mi SSE 8.1 mph - N/A   Clear
2:35 AM 77.0 °F - 54.1 °F 45% 29.70 in 10.0 mi SSE 9.2 mph - N/A   Clear
6:55 AM 68.7 °F - 57.2 °F 67% 29.71 in 10.0 mi SE 5.8 mph - N/A   Clear
7:15 AM 68.7 °F - 57.2 °F 67% 29.71 in 10.0 mi SE 6.9 mph - N/A   Clear
7:35 AM 69.8 °F - 57.2 °F 64% 29.72 in 10.0 mi SE 6.9 mph - N/A   Clear
7:55 AM 70.7 °F - 57.2 °F 62% 29.72 in 10.0 mi SE 8.1 mph - N/A   Clear
8:15 AM 71.6 °F - 57.0 °F 60% 29.72 in 10.0 mi SSE 10.4 mph - N/A   Clear
9:15 AM 75.6 °F - 57.6 °F 53% 29.73 in 10.0 mi SSE 6.9 mph - N/A   Clear
9:35 AM 77.4 °F - 57.6 °F 50% 29.74 in 10.0 mi South 10.4 mph - N/A   Clear
9:55 AM 79.7 °F - 57.7 °F 47% 29.73 in 10.0 mi South 11.5 mph - N/A   Clear
10:15 AM 82.0 °F 81.8 °F 57.7 °F 43% 29.73 in 10.0 mi South 11.5 mph 17.3 mph N/A   Clear
10:35 AM 84.7 °F 83.9 °F 57.0 °F 39% 29.72 in 10.0 mi South 15.0 mph 21.9 mph N/A   Clear
10:55 AM 86.4 °F 85.2 °F 57.0 °F 37% 29.71 in 10.0 mi South 11.5 mph 18.4 mph N/A   Clear
11:15 AM 87.8 °F 86.3 °F 56.5 °F 34% 29.71 in 10.0 mi South 11.5 mph 18.4 mph N/A   Clear
11:35 AM 88.7 °F 87.1 °F 56.1 °F 33% 29.70 in 10.0 mi South 10.4 mph 20.7 mph N/A   Clear
11:55 AM 89.4 °F 88.4 °F 58.1 °F 35% 29.69 in 10.0 mi SSE 11.5 mph 20.7 mph N/A   Clear
12:15 PM 89.6 °F 88.4 °F 58.1 °F 34% 29.69 in 10.0 mi SSE 12.7 mph 23.0 mph N/A   Clear
12:35 PM 90.1 °F 89.1 °F 58.3 °F 34% 29.68 in 10.0 mi SE 11.5 mph 20.7 mph N/A   Clear
12:55 PM 90.7 °F 89.5 °F 57.9 °F 33% 29.67 in 10.0 mi SSE 18.4 mph 21.9 mph N/A   Clear
1:15 PM 91.0 °F 90.0 °F 57.9 °F 33% 29.66 in 10.0 mi SSE 16.1 mph 24.2 mph N/A   Clear
1:35 PM 92.1 °F 90.8 °F 57.6 °F 31% 29.66 in 10.0 mi SSE 11.5 mph 19.6 mph N/A   Clear
1:55 PM 92.3 °F 91.0 °F 57.4 °F 31% 29.65 in 10.0 mi SSE 16.1 mph 19.6 mph N/A   Clear
2:15 PM 92.7 °F 91.5 °F 57.7 °F 31% 29.64 in 10.0 mi SSE 11.5 mph 24.2 mph N/A   Clear
2:35 PM 93.2 °F 91.9 °F 57.0 °F 30% 29.63 in 10.0 mi SE 12.7 mph 27.6 mph N/A   Clear
3:15 PM 95.4 °F 93.2 °F 54.7 °F 25% 29.62 in 10.0 mi SSE 17.3 mph 23.0 mph N/A   Clear
3:35 PM 96.1 °F 94.1 °F 54.9 °F 25% 29.61 in 10.0 mi South 13.8 mph 24.2 mph N/A   Clear
3:55 PM 96.1 °F 94.1 °F 54.9 °F 25% 29.61 in 10.0 mi SSE 16.1 mph 25.3 mph N/A   Clear
4:15 PM 96.6 °F 94.8 °F 55.2 °F 25% 29.59 in 10.0 mi SSE 16.1 mph 25.3 mph N/A   Clear
4:35 PM 96.1 °F 94.1 °F 55.4 °F 25% 29.59 in 10.0 mi SSE 17.3 mph 25.3 mph N/A   Clear
4:55 PM 95.2 °F 93.3 °F 55.2 °F 26% 29.58 in 10.0 mi SE 17.3 mph 26.5 mph N/A   Clear
5:15 PM 95.9 °F 93.9 °F 55.2 °F 25% 29.59 in 10.0 mi SSE 17.3 mph 25.3 mph N/A   Clear
5:35 PM 95.4 °F 93.8 °F 56.8 °F 27% 29.59 in 10.0 mi SSE 18.4 mph 26.5 mph N/A   Clear
5:55 PM 94.3 °F 93.4 °F 58.3 °F 30% 29.59 in 10.0 mi SE 18.4 mph 24.2 mph N/A   Clear
6:15 PM 91.8 °F 90.9 °F 59.0 °F 33% 29.59 in 10.0 mi SE 17.3 mph 26.5 mph N/A   Clear
6:35 PM 87.3 °F 87.0 °F 60.4 °F 40% 29.59 in 10.0 mi SE 17.3 mph 28.8 mph N/A Rain Light Rain
6:55 PM 83.7 °F 84.3 °F 62.2 °F 48% 29.59 in 10.0 mi SE 15.0 mph 25.3 mph N/A Rain Rain
7:15 PM 83.1 °F 83.7 °F 61.3 °F 48% 29.62 in 10.0 mi ESE 11.5 mph 23.0 mph N/A   Scattered Clouds
7:35 PM 83.3 °F 83.7 °F 61.0 °F 47% 29.61 in 10.0 mi SE 13.8 mph 21.9 mph N/A   Clear
7:55 PM 83.3 °F 83.5 °F 60.4 °F 46% 29.62 in 10.0 mi SE 15.0 mph 25.3 mph N/A   Clear
8:15 PM 82.4 °F 82.7 °F 60.3 °F 47% 29.63 in 10.0 mi SE 12.7 mph 19.6 mph N/A   Clear
8:35 PM 81.5 °F 82.0 °F 60.3 °F 48% 29.64 in 10.0 mi SE 10.4 mph 17.3 mph N/A   Clear
8:55 PM 81.5 °F 82.0 °F 60.3 °F 48% 29.63 in 10.0 mi SE 13.8 mph 21.9 mph N/A   Clear
9:15 PM 81.0 °F 81.6 °F 60.1 °F 49% 29.64 in 10.0 mi SE 16.1 mph 21.9 mph N/A   Clear
9:35 PM 80.6 °F 81.4 °F 60.3 °F 50% 29.65 in 10.0 mi SE 12.7 mph 18.4 mph N/A   Clear
9:55 PM 80.1 °F 81.1 °F 60.8 °F 52% 29.66 in 10.0 mi SSE 13.8 mph 20.7 mph N/A   Clear
10:15 PM 79.3 °F - 61.2 °F 54% 29.67 in 10.0 mi SSE 9.2 mph 23.0 mph N/A   Clear
10:35 PM 78.6 °F - 61.7 °F 56% 29.67 in 10.0 mi SSE 12.7 mph 23.0 mph N/A   Clear
11:15 PM 77.0 °F - 61.7 °F 59% 29.69 in 10.0 mi SSE 8.1 mph 19.6 mph N/A   Clear
11:35 PM 76.5 °F - 61.7 °F 60% 29.69 in 10.0 mi SSE 12.7 mph 21.9 mph N/A   Clear
11:55 PM 76.1 °F - 61.7 °F 61% 29.69 in 10.0 mi SSE 10.4 mph 17.3 mph N/A   Clear